Flag for U.S.A. Weather past 2 weeks in Provo, Utah, U.S.A.

Now
72 °F

Scattered showers. Broken clouds.


Feels Like: 77 °F
Forecast: 60 / 81 °F
Wind: No wind

Location: Provo Municipal

Current Time: Aug 20, 2014 at 9:37:34 PM

Latest Report: Aug 20, 2014 at 8:47 PM


Visibility: 15 mi

Pressure: 30.02 "Hg

Humidity: 50%

Dew point: 52 °F

Location of ProvoLocation

Historic Weather in Provo — Graph

°F

Provo temperature yesterday

Maximum temperature yesterday: 75 °F (at 12:15 AM)
Minimum temperature yesterday: 63 °F (at 5:55 AM)
Average temperature yesterday: 69 °F

Past Weeks' High & Low Weather Summary

 TemperatureHumidityPressure
High95 °F (Aug 17, 5:49 PM)94% (Aug 20, 5:15 AM)30.26 "Hg (Aug 20, 5:15 AM)
Low55 °F (Aug 7, 5:35 AM)11% (Aug 17, 4:48 PM)29.90 "Hg (Aug 18, 5:49 PM)
Average71 °F52%30.12 "Hg
* Reported Aug 5 7:49 PM — Aug 20 7:51 PM, Provo, Weather by CustomWeather, © 2014

Note: Actual official high and low records may vary slightly from our data, if they occured in-between our weather recording intervals... More about our weather records

Advertising

Provo weather history for previous 24 hours

 ConditionsComfort  
Time TempWeatherWind HumidityBarometerVisibility
7:51 PM
Aug 20
75 °FScattered showers. Broken clouds.13 mph47%29.97 "Hg15 mi
6:55 PM79 °FPartly sunny.3 mph39%29.96 "Hg15 mi
5:49 PM81 °FScattered clouds.5 mph37%29.96 "Hg15 mi
4:51 PM81 °FScattered clouds.5 mph37%29.98 "Hg15 mi
3:53 PM79 °FScattered clouds.6 mph42%30.00 "Hg15 mi
2:59 PM77 °FWarm.3 mph44%30.02 "Hg10 mi
1:52 PM75 °FMild.7 mph50%30.05 "Hg10 mi
12:48 PM70 °FScattered clouds.No wind60%30.07 "Hg10 mi
11:58 AM68 °FScattered clouds.3 mph64%30.07 "Hg10 mi
10:50 AM63 °FScattered clouds.3 mph83%30.07 "Hg10 mi
9:50 AM63 °FScattered showers. Broken clouds.5 mph83%30.07 "Hg10 mi
8:52 AM61 °FScattered showers. More clouds than sun.8 mph88%30.05 "Hg10 mi
7:51 AM59 °FLight rain. More clouds than sun.No wind88%30.07 "Hg10 mi
6:49 AM59 °FLight rain. Mostly cloudy.No wind88%30.04 "Hg10 mi
6:35 AM59 °FPartly cloudy.5 mph88%30.03 "Hg10 mi
5:55 AM61 °FOvercast.9 mph83%30.02 "Hg10 mi
5:35 AM61 °FMostly cloudy.5 mph83%30.00 "Hg10 mi
5:15 AM59 °FPartly cloudy.5 mph94%29.99 "Hg10 mi
4:55 AM59 °FPassing clouds.5 mph88%29.99 "Hg10 mi
4:35 AM61 °FPassing clouds.6 mph88%29.99 "Hg10 mi
4:15 AM59 °FPassing clouds.No wind88%29.98 "Hg10 mi
3:55 AM61 °FPartly cloudy.6 mph83%29.98 "Hg10 mi
3:35 AM61 °FMostly cloudy.12 mph88%29.99 "Hg10 mi
3:15 AM61 °FThundershowers. Mostly cloudy.15 mph88%29.99 "Hg10 mi
2:55 AM61 °FThunderstorms. Partly cloudy.13 mph83%29.98 "Hg10 mi
2:35 AM63 °FThunderstorms. Overcast.15 mph77%29.96 "Hg9 mi
2:15 AM64 °FMostly cloudy.14 mph73%29.95 "Hg10 mi
1:55 AM64 °FMostly cloudy.7 mph68%29.94 "Hg10 mi
1:35 AM64 °FMostly cloudy.3 mph73%29.94 "Hg10 mi
1:15 AM64 °FOvercast.5 mph73%29.93 "Hg10 mi
12:55 AM64 °FMostly cloudy.3 mph73%29.93 "Hg10 mi
12:35 AM63 °FOvercast.No wind77%29.94 "Hg10 mi
11:55 PM
Aug 19
63 °FPassing clouds.3 mph77%29.94 "Hg10 mi
11:35 PM63 °FPassing clouds.6 mph77%29.94 "Hg10 mi
11:15 PM64 °FClear.No wind73%29.94 "Hg10 mi
10:55 PM63 °FPassing clouds.No wind77%29.94 "Hg10 mi
10:35 PM64 °FPassing clouds.5 mph73%29.94 "Hg10 mi
10:15 PM64 °FPassing clouds.No wind73%29.94 "Hg10 mi
9:55 PM63 °FClear.No wind77%29.94 "Hg10 mi
9:35 PM64 °FPassing clouds.No wind73%29.93 "Hg10 mi
9:15 PM64 °FScattered clouds.8 mph68%29.93 "Hg10 mi
Weather by CustomWeather, © 2014

See weather overviewHow to use our weather pages